Hourly Data Report for September 20, 2017

All times are specified in Local Standard Time (LST). Add 1 hour to adjust for Daylight Saving Time where and when it is observed.

SAINT JOHN A
NEW BRUNSWICK

45°18'58.000" N
65°53'24.000" W
108.80 m
8104901
71609
YSJ

Download Data

Hourly Data (September 2017)
Hourly Data Report for September 20, 2017
Temp Definition
°C
Dew Point Temp Definition
°C
Rel Hum Definition
%
Wind Dir Definition
10's deg

Wind Spd Definition
km/h
Visibility Definition
km
Stn Press Definition
kPa
Hmdx Definition


Wind Chill Definition


Weather Definition


TIME
00:00 Legend Double Dagger 19.0 18.5 97 9 7 24.1 100.67     LegendNANA
01:00 Legend Double Dagger 19.1 18.7 98 12 14 4.8 100.63     Fog
02:00 Legend Double Dagger 18.9 18.7 99 10 9 0.6 100.59     Fog
03:00 Legend Double Dagger 19.0 18.9 99 8 8 0.6 100.58     Fog
04:00 Legend Double Dagger 18.9 18.8 99 7 6 0.6 100.51     Fog
05:00 Legend Double Dagger 18.9 18.8 99 5 8 0.8 100.48     Fog
06:00 Legend Double Dagger 19.0 18.9 99 4 7 0.8 100.51     Fog
07:00 Legend Double Dagger 19.2 19.1 99 8 8 3.2 100.50     Drizzle,Fog
08:00 Legend Double Dagger 19.4 19.1 98 9 17 4.8 100.45     Rain,Fog
09:00 Legend Double Dagger 19.7 19.3 97 7 12 9.7 100.47     Rain,Fog
10:00 Legend Double Dagger 20.4 19.5 95 8 11 24.1 100.43 28   LegendNANA
11:00 Legend Double Dagger 21.5 19.8 90 6 14 24.1 100.38 29   Cloudy
12:00 Legend Double Dagger 23.9 19.9 78 7 17 24.1 100.33 31   LegendNANA
13:00 Legend Double Dagger 24.4 19.4 73 10 16 24.1 100.26 31   LegendNANA
14:00 Legend Double Dagger 25.0 18.9 68 6 11 24.1 100.24 32   Cloudy
15:00 Legend Double Dagger 24.5 18.6 69 9 18 24.1 100.16 31   LegendNANA
16:00 Legend Double Dagger 24.7 18.7 69 10 12 24.1 100.13 31   LegendNANA
17:00 Legend Double Dagger 23.2 18.1 73 10 13 24.1 100.15 29   Cloudy
18:00 Legend Double Dagger 20.6 19.1 91 11 5 24.1 100.19 27   LegendNANA
19:00 Legend Double Dagger 19.9 18.5 92 9 3 24.1 100.21     LegendNANA
20:00 Legend Double Dagger 16.9 16.4 97 4 6 24.1 100.23     Mostly Cloudy
21:00 Legend Double Dagger 17.7 17.0 96 7 8 24.1 100.26     LegendNANA
22:00 Legend Double Dagger 18.2 17.5 95 5 10 24.1 100.32     LegendNANA
23:00 Legend Double Dagger 17.9 17.3 96 5 12 24.1 100.35     Mostly Cloudy

Notes on Data Quality.

Legend

  • E = Estimated
  • M = Missing
  • NA = Not Available
  • ‡ = Partner data that is not subject to review by the National Climate Archives
Date modified: